This is the latest recevied weather packets stored in our database for station/object KF0PEC-15. If no packets are shown the sender has not sent any weather packets the latest 1 day(s).
| Time | Temp. | Humidity | Pressure | Rain* | Wind** | Luminosity | Snow |
|---|---|---|---|---|---|---|---|
| 1778011319 | 3.33° C | 94% | 1018.1 hPa | 0 mm | 1.34 m/s, 161° | 103 W/m² | - |
| 1778010755 | 3.33° C | 94% | 1018.2 hPa | 0 mm | 0.89 m/s, 143° | 607 W/m² | - |
| 1778010170 | 3.33° C | 94% | 1018.2 hPa | 0 mm | 0.89 m/s, 153° | 698 W/m² | - |
| 1778009599 | 3.33° C | 94% | 1018.4 hPa | 0 mm | 0.89 m/s, 146° | 542 W/m² | - |
| 1778009105 | 3.89° C | 94% | 1017.8 hPa | 0 mm | 0.89 m/s, 159° | 684 W/m² | - |
| 1778008604 | 3.89° C | 94% | 1017.9 hPa | 0 mm | 0.89 m/s, 155° | 884 W/m² | - |
| 1778008015 | 3.89° C | 94% | 1018.1 hPa | 0 mm | 1.34 m/s, 175° | 118 W/m² | - |
| 1778007504 | 3.89° C | 94% | 1018.1 hPa | 0 mm | 0.89 m/s, 137° | 814 W/m² | - |
| 1778006932 | 3.89° C | 93% | 1018.4 hPa | 0 mm | 1.34 m/s, 116° | 108 W/m² | - |
| 1778006400 | 3.33° C | 93% | 1018.5 hPa | 0 mm | 1.34 m/s, 133° | 930 W/m² | - |
| 1778005829 | 3.33° C | 93% | 1018.9 hPa | 0 mm | 1.34 m/s, 92° | 136 W/m² | - |
| 1778005250 | 3.33° C | 93% | 1019 hPa | 0 mm | 2.24 m/s, 137° | 137 W/m² | - |
| 1778004730 | 3.33° C | 92% | 1019.1 hPa | 0 mm | 2.24 m/s, 130° | 916 W/m² | - |
| 1778004242 | 3.89° C | 93% | 1019 hPa | 0 mm | 2.24 m/s, 145° | 888 W/m² | - |
| 1778003744 | 3.89° C | 92% | 1019.1 hPa | 0 mm | 1.34 m/s, 108° | 781 W/m² | - |
| 1778003200 | 3.33° C | 91% | 1019.3 hPa | 0 mm | 1.34 m/s, 140° | 862 W/m² | - |
| 1778002599 | 3.33° C | 91% | 1019.6 hPa | 0 mm | 0.45 m/s, 211° | 568 W/m² | - |
| 1778002005 | 3.33° C | 90% | 1019.7 hPa | 0 mm | 1.34 m/s, 79° | 419 W/m² | - |
| 1778001480 | 3.33° C | 90% | 1019.8 hPa | 0 mm | 1.34 m/s, 141° | 409 W/m² | - |
| 1778000989 | 3.33° C | 88% | 1019.8 hPa | 0 mm | 1.79 m/s, 135° | 372 W/m² | - |
| 1778000452 | 3.33° C | 88% | 1019.8 hPa | 0 mm | 1.34 m/s, 158° | 449 W/m² | - |
| 1777999864 | 3.33° C | 88% | 1019.6 hPa | 0 mm | 1.34 m/s, 119° | 418 W/m² | - |
| 1777999269 | 3.33° C | 87% | 1019.4 hPa | 0 mm | 1.34 m/s, 108° | 395 W/m² | - |
| 1777998734 | 3.33° C | 86% | 1019.4 hPa | 0 mm | 0.89 m/s, 62° | 391 W/m² | - |
| 1777998220 | 3.89° C | 86% | 1019.4 hPa | 0 mm | 0.89 m/s, 32° | 367 W/m² | - |
* Rain latest hour (hover to see other rain measurements)
** Current wind speed in m/s (hover to see current wind gust speed)